This is the latest recevied weather packets stored in our database for station/object N4RCT. If no packets are shown the sender has not sent any weather packets the latest 10 day(s).
| Time | Temp. | Humidity | Pressure | Rain* | Wind** | Luminosity | Snow |
|---|---|---|---|---|---|---|---|
| 1778015063 | 25° C | 44% | 1011.8 hPa | 0 mm | - | 168 W/m² | - |
| 1778014751 | 25° C | 46% | 1011.8 hPa | 0 mm | - | 183 W/m² | - |
| 1778014449 | 25.56° C | 43% | 1011.6 hPa | 0 mm | - | 170 W/m² | - |
| 1778014146 | 25.56° C | 41% | 1011.9 hPa | 0 mm | - | 154 W/m² | - |
| 1778013843 | 25.56° C | 43% | 1012.1 hPa | 0 mm | - | 110 W/m² | - |
| 1778013540 | 25.56° C | 42% | 1012 hPa | 0 mm | - | 125 W/m² | - |
| 1778013237 | 25.56° C | 41% | 1012.1 hPa | 0 mm | - | 269 W/m² | - |
| 1778012933 | 25° C | 42% | 1012.3 hPa | 0 mm | - | 266 W/m² | - |
| 1778012630 | 25.56° C | 43% | 1012 hPa | 0 mm | - | 223 W/m² | - |
| 1778012326 | 25.56° C | 40% | 1012.3 hPa | 0 mm | - | 123 W/m² | - |
| 1778012024 | 25.56° C | 42% | 1012.3 hPa | 0 mm | - | 71 W/m² | - |
| 1778011722 | 25.56° C | 40% | 1012.5 hPa | 0 mm | - | 79 W/m² | - |
| 1778011418 | 25.56° C | 42% | 1012.5 hPa | 0 mm | - | 62 W/m² | - |
| 1778011114 | 26.11° C | 41% | 1012.6 hPa | 0 mm | - | 82 W/m² | - |
| 1778010811 | 26.11° C | 42% | 1012.6 hPa | 0 mm | - | 212 W/m² | - |
| 1778010508 | 26.67° C | 39% | 1012.6 hPa | 0 mm | - | 581 W/m² | - |
| 1778010206 | 25.56° C | 44% | 1012.6 hPa | 0 mm | - | 663 W/m² | - |
| 1778009901 | 26.11° C | 42% | 1012.7 hPa | 0 mm | - | 675 W/m² | - |
| 1778009599 | 26.11° C | 40% | 1012.8 hPa | 0 mm | - | 691 W/m² | - |
| 1778009296 | 26.11° C | 40% | 1012.8 hPa | 0 mm | - | 700 W/m² | - |
| 1778008995 | 26.11° C | 39% | 1013 hPa | 0 mm | - | 714 W/m² | - |
| 1778008692 | 26.67° C | 41% | 1012.9 hPa | 0 mm | - | 716 W/m² | - |
| 1778008390 | 26.11° C | 41% | 1013.3 hPa | 0 mm | - | 707 W/m² | - |
| 1778008086 | 26.67° C | 41% | 1013.3 hPa | 0 mm | - | 714 W/m² | - |
| 1778007782 | 25.56° C | 40% | 1013.3 hPa | 0 mm | - | 788 W/m² | - |
* Rain latest hour (hover to see other rain measurements)
** Current wind speed in m/s (hover to see current wind gust speed)